Location: Bord�res
(43.2000°N, 0.2167°W)
Time: 14:51:16
(UTC+00:00)

SPOT 3 Rocket - Pass Details

Date: 03 March 2021
Orbit: 778 x 795 km, 98.7° (Epoch: 14 April)

Event Time Altitude Azimuth Distance (km) Brightness Sun altitude
Exits shadow 20:18:41 42° 19° (NNE) 1,130 4.3 -27.1°
Drops below altitude 10° 20:22:19 10° 354° (N) 2,371 6.3 -27.7°
Sets 20:24:42 0° 351° (N) 3,306 7.1 -28.2°
